OPS 5712 (P/L 160)

Satellite information

Favourite Embed

Satellite Type and Status

PAYLOADIN ORBIT

Key statistics

Satellite OPS 5712 (P/L 160) at a glance.

Uptime

21382

Days in orbit

Revolutions

≈ 14.7

Per day

Orbit

LEO

Low Earth Orbit

Inclination

69.9

Latest

Satellite identification and parameters

Extended collection of information and parameters for OPS 5712 (P/L 160).

Object identification

Identified? True

Debris? False

Object name: OPS 5712 (P/L 160)

International designator: 1967-053A

Object number (NORAD): 2826

Object ID (CCSDS): 2826

Country: UNITED STATES OF AMERICA (US)

Current information (Y/N): Y

RCS size: MEDIUM

Orbital parameters

Period: 97.678 minutes

Inclination: 69.9173 deg

SMA: 7025.723 km

Apoapsis: 651.418 km

Periapsis: 643.758 km

RAAN: 135.4063 deg

Eccentricy: 0.00054513

Argument of periapsis: 289.9923 deg

Mean anomaly: 70.0636 deg

Mean motion: 14.74233241 rev/day

Mean motion (dot): 0.00016114 rev/day2

B* drag term: 0.0024399623 1/REarth

Two-line elements (TLE)

Creation date: Dec. 12, 2025, 10:14 a.m.

Reference frame: TEME

Reference center: EARTH

Epoch: Dec. 12, 2025, 5:31 a.m. UTC

TLE line 0: 0 OPS 5712 (P/L 160)

TLE line 1: 1 02826U 67053A 25346.23033768 .00016114 00000-0 24400-2 0 9996

TLE line 2: 2 02826 69.9173 135.4063 0005451 289.9923 70.0636 14.74233241 38648

Live tracking on map

Real-time ground track for satellite OPS 5712 (P/L 160).

In-orbit conjunctions

There are no conjunctions computed for OPS 5712 (P/L 160), at the moment. Check back to stay up to date, as we update our databases every day.

Go to all conjunctions

Associated space launch

Poppy was the follow-on ELINT system, which succeeded the Grab ELINT satellite system.

OPS 5712 (P/L 160) was lifted into orbit during the mission ‘Thor SLV-2 Agena D | Poppy 7A,B,C,D’, on board a Thor SLV-2 Agena D space rocket.

The launch took place on May 31, 1967, 9:30 a.m. from Space Launch Complex 2W.

For more information about the launch, click the button.

Launch to space Thor SLV-2 Agena D | Poppy 7A,B,C,D
Thor SLV-2 Agena D | Poppy 7A,B,C,D

Agency: N/A

Status: Launch Successful

Launch date: May 31, 1967, 9:30 a.m. UTC

Rocket: Thor SLV-2 Agena D

Launch pad: Space Launch Complex 2W

Location: Vandenberg SFB, CA, USA

...

Latest news about this satellite

There are no fresh news available about this satellite. Check back as we update our databases every day.


Newsletter sign-up

Weekly statistics, charts and insights to help you stay on top of the space industry.